Regional Weather Roundup
Issued by NWS

Home | Current Version | Previous Version | Graphics & Text | Print | Product List | Glossary On
Versions: 1 2 3 4 5 6 7 8 9 10 11 12 13 14 15 16 17 18 19 20 21 22 23 24 25 26 27
000
ASUS45 KBOI 261510
RWRID

IDAHO REGIONAL WEATHER ROUNDUP
NATIONAL WEATHER SERVICE BOISE ID
900 AM MDT FRI AUG 26 2016

NOTE: "FAIR" INDICATES FEW OR NO CLOUDS BELOW 12000 FEET
WITH NO SIGNIFICANT WEATHER AND/OR OBSTRUCTIONS TO VISIBILITY

IDZ012-014-261600-
SOUTHWEST IDAHO


CITY           SKY/WX    TMP DP  RH WIND       PRES   REMARKS
BOISE          PTSUNNY   67  34  29 SE6       30.00R
CALDWELL       PTSUNNY   59  47  64 CALM      30.00R
MOUNTAIN HOME  MOSUNNY   57  37  46 SE7       30.01R
$$

IDZ016-017-261600-
SOUTHCENTRAL IDAHO


CITY           SKY/WX    TMP DP  RH WIND       PRES   REMARKS
BURLEY         PTSUNNY   51  43  74 CALM      30.05S
JEROME         MOSUNNY   57  36  45 E8        30.06R
TWIN FALLS     MOSUNNY   61  29  29 S8        30.06R
$$

IDZ019>023-261600-
SOUTHEAST IDAHO


CITY           SKY/WX    TMP DP  RH WIND       PRES   REMARKS
IDAHO FALLS    MOSUNNY   55  37  50 N5        30.08S
POCATELLO      MOSUNNY   52  31  44 S5        30.07R
REXBURG        CLOUDY    55  38  52 CALM      30.09R
$$

IDZ006-010-011-018-031-032-261600-
CENTRAL IDAHO MOUNTAINS


CITY           SKY/WX    TMP DP  RH WIND       PRES   REMARKS
MCCALL         MOSUNNY   55  38  52 CALM      30.09R
HAILEY         PTSUNNY   54  32  43 NW10      30.12F
STANLEY          N/A     39  30  70 CALM      30.18S
SALMON         CLOUDY    52  36  54 CALM      30.12R
CHALLIS        MOSUNNY   53  36  52 CALM      30.12R
$$

IDZ002-004-006-007-026-261600-
NORTHERN IDAHO


CITY           SKY/WX    TMP DP  RH WIND       PRES   REMARKS
LEWISTON       SUNNY     64  38  38 E7        30.01R
LOWELL           N/A     50  43  77 CALM      30.09R
COEUR D`ALENE  MOSUNNY   63  46  55 NE8       30.03S
MULLAN PASS    SUNNY     51  34  52 SE5       30.16S
$$




USA.gov is the U.S. government's official web portal to all federal, state and local government web resources and services.